[Iaude] MPEC E167: 2024 EP3 [a=1.06,e=0.11,i=15.3,H=24.6]
    mpec at cfa.harvard.edu 
    mpec at cfa.harvard.edu
       
    Wed Mar 13 08:50:08 EDT 2024
    
    
  
M.P.E.C. 2024-E167                               Issued 2024 March 13, 12:48 UT
     The Minor Planet Electronic Circulars contain information on unusual
         minor planets, routine data on comets and natural satellites,
         and occasional editorial announcements.  They are published
    on behalf of Division F of the International Astronomical Union by the
          Minor Planet Center, Smithsonian Astrophysical Observatory,
                          Cambridge, MA 02138, U.S.A.
			  
             Prepared using the Tamkin Foundation Computer Network
                              MPC at CFA.HARVARD.EDU
            URL https://www.minorplanetcenter.net/    ISSN 1523-6714
                                    2024 EP3                                    
Observations:
     K24E03P*1C2024 03 11.49430314 32 33.911+10 55 32.45         19.26GVEE167703
     K24E03P 1C2024 03 11.49885714 32 33.356+10 54 20.92         19.81GVEE167703
     K24E03P 1C2024 03 11.50113314 32 32.982+10 53 45.53         19.86GVEE167703
     K24E03P KC2024 03 11.51862214 32 30.505+10 49 10.49         19.53GVEE167I52
     K24E03P KC2024 03 11.51937514 32 30.394+10 48 58.54         19.35GVEE167I52
     K24E03P KC2024 03 11.52013614 32 30.289+10 48 46.44         19.30GVEE167I52
     K24E03P KC2024 03 11.52089714 32 30.167+10 48 34.78         19.61GVEE167I52
     K24E03P KC2024 03 11.57510014 32 36.571+10 38 20.15         19.6 GVEE167474
     K24E03P KC2024 03 11.57633814 32 36.454+10 37 58.76         19.6 GVEE167474
     K24E03P KC2024 03 11.57757614 32 36.259+10 37 40.87         19.6 GVEE167474
     K24E03P KC2024 03 11.57881114 32 36.094+10 37 21.07         19.4 GVEE167474
     K24E03P KC2024 03 11.58004714 32 35.966+10 37 01.96         19.5 GVEE167474
     K24E03P KC2024 03 11.64298014 32 27.490+10 20 24.90         19.2 GVEE167474
     K24E03P KC2024 03 11.64916214 32 26.566+10 18 45.25         18.9 GVEE167474
     K24E03P KC2024 03 11.65039914 32 26.402+10 18 25.67         19.6 GVEE167474
     K24E03P KC2024 03 11.65163814 32 26.268+10 18 06.26         19.1 GVEE167474
     K24E03P KC2024 03 11.97090 14 32 03.713+08 45 01.51         18.9 GVEE167B42
     K24E03P KC2024 03 11.97205 14 32 03.586+08 44 42.18         19.1 GVEE167B42
     K24E03P KC2024 03 11.97318 14 32 03.451+08 44 22.63         18.9 GVEE167B42
     K24E03P KB2024 03 11.99198 14 32 05.34 +08 39 28.3          19.2 GXEE167K19
     K24E03P  C2024 03 11.99348 14 32 03.93 +08 43 22.0          19.1 GVEE167M28
     K24E03P  C2024 03 11.99551 14 32 03.64 +08 42 48.2          19.4 GVEE167M28
     K24E03P KB2024 03 11.99565 14 32 04.91 +08 38 26.6          18.6 GXEE167K19
     K24E03P KB2024 03 11.99571714 32 05.76 +08 38 24.2          19.4 GXEE167958
     K24E03P  C2024 03 11.99755 14 32 03.32 +08 42 13.6          19.1 GVEE167M28
     K24E03P KC2024 03 12.00202 14 32 03.44 +08 36 33.1                VEE167204
     K24E03P KB2024 03 12.00259814 32 04.87 +08 36 26.5          19.3 GXEE167958
     K24E03P KC2024 03 12.00922 14 32 02.48 +08 34 30.3          19.5 GVEE167204
     K24E03P KB2024 03 12.00944614 32 04.05 +08 34 30.4          18.8 GXEE167958
     K24E03P 1C2024 03 12.03435 14 31 58.21 +08 27 07.0          19.9 VXEE167033
     K24E03P 1C2024 03 12.03458 14 31 58.15 +08 27 02.8          19.6 VXEE167033
     K24E03P 1C2024 03 12.03482 14 31 58.13 +08 26 58.8          20.0 VXEE167033
     K24E03P 1C2024 03 12.03505 14 31 58.11 +08 26 54.9          19.8 VXEE167033
     K24E03P 1C2024 03 12.03528 14 31 58.06 +08 26 51.1          19.8 VXEE167033
     K24E03P KB2024 03 12.11318 14 31 47.326+08 04 25.10         18.9 GXEE167K74
     K24E03P KB2024 03 12.11647 14 31 46.867+08 03 27.76         18.0 GXEE167K74
     K24E03P KB2024 03 12.12566 14 31 50.85 +08 01 52.9          18.9 VqEE167Y66
     K24E03P KB2024 03 12.12653 14 31 50.73 +08 01 38.1          19.0 VqEE167Y66
     K24E03P KB2024 03 12.12740 14 31 50.57 +08 01 22.7          18.8 VqEE167Y66
     K24E03P KB2024 03 12.12825 14 31 50.43 +08 01 08.0          18.9 VqEE167Y66
     K24E03P KB2024 03 12.12910 14 31 50.31 +08 00 53.2                qEE167Y66
     K24E03P KB2024 03 12.13084 14 31 50.01 +08 00 23.0          18.8 VqEE167Y66
     K24E03P KB2024 03 12.13171 14 31 49.88 +08 00 07.6          18.9 VqEE167Y66
     K24E03P 1C2024 03 12.17001 14 31 39.07 +07 47 42.1          19.7 VXEE167033
     K24E03P 1C2024 03 12.17024 14 31 39.01 +07 47 38.5          20.1 VXEE167033
     K24E03P 1C2024 03 12.17047 14 31 38.98 +07 47 34.2          20.3 VXEE167033
     K24E03P 1C2024 03 12.17069 14 31 38.95 +07 47 30.5          20.0 VXEE167033
     K24E03P 1C2024 03 12.17092 14 31 38.92 +07 47 26.4          20.2 VXEE167033
     K24E03P KB2024 03 12.17670 14 31 38.532+07 46 03.83         18.8 VZEE167C95
     K24E03P KB2024 03 12.20083 14 31 34.985+07 38 55.97         19.4 VZEE167C95
     K24E03P 6C2024 03 12.20343 14 31 35.48 +07 38 31.9          19.4 GVEE167Z84
     K24E03P 6C2024 03 12.20498 14 31 35.24 +07 38 04.4          19.1 GVEE167Z84
     K24E03P 6C2024 03 12.20810 14 31 34.75 +07 37 08.7          19.2 GVEE167Z84
     K24E03P KC2024 03 12.28169114 31 39.27 +07 15 02.5          19.3 GVEE167H21
     K24E03P KC2024 03 12.28449014 31 38.85 +07 14 12.3          19.4 GVEE167H21
     K24E03P KC2024 03 12.28728814 31 38.42 +07 13 22.2          19.3 GVEE167H21
     K24E03P KC2024 03 12.29008614 31 38.01 +07 12 31.8          19.3 GVEE167H21
     K24E03P KC2024 03 12.29288414 31 37.60 +07 11 41.6          19.3 GVEE167H21
     K24E03P mC2024 03 12.50106214 31 08.029+06 08 15.22         19.00GVEE167I52
     K24E03P mC2024 03 12.50756714 31 06.949+06 06 12.64         19.04GVEE167I52
     K24E03P mC2024 03 12.50787514 31 06.920+06 06 06.98         19.44GVEE167I52
     K24E03P mC2024 03 12.51245114 31 06.161+06 04 41.02         19.21GVEE167I52
     K24E03P KC2024 03 12.96682114 30 33.88 +03 35 27.1          19.6 GXEE167595
     K24E03P KC2024 03 12.97005014 30 33.37 +03 34 20.6          19.7 GXEE167595
     K24E03P KB2024 03 12.97187314 30 34.99 +03 33 45.8          17.9 GXEE167I93
     K24E03P KC2024 03 12.97340714 30 32.87 +03 33 12.9          19.6 GXEE167595
     K24E03P KB2024 03 12.97390214 30 34.67 +03 33 05.0          18.5 GXEE167I93
     K24E03P KB2024 03 12.97582114 30 34.39 +03 32 25.7          18.3 GXEE167I93
     K24E03P KC2024 03 12.99100114 30 30.16 +03 27 14.5          19.4 GVEE167L01
     K24E03P KC2024 03 12.99297814 30 29.83 +03 26 34.2          19.3 GVEE167L01
     K24E03P KC2024 03 12.99495014 30 29.52 +03 25 53.8          19.2 GVEE167L01
     K24E03P KC2024 03 12.99692714 30 29.21 +03 25 12.9          19.4 GVEE167L01
     K24E03P KC2024 03 12.99892214 30 28.87 +03 24 32.2          19.3 GVEE167L01
     K24E03P 1C2024 03 13.10117 14 30 11.70 +02 48 55.3          19.8 VXEE167033
     K24E03P 1C2024 03 13.10141 14 30 11.69 +02 48 50.6          19.7 VXEE167033
     K24E03P 1C2024 03 13.10212 14 30 11.53 +02 48 35.4          19.2 VXEE167033
Observer details:
033 Karl Schwarzschild Observatory, Tautenburg.  Observers S. Melnikov, C.
    Hogner, F. Ludwig, M. Hartmann, B. Stecklum.  Measurer B. Stecklum.
    1.34-m f/3 Schmidt + CCD.
204 Schiaparelli Observatory.  Observer L. Buzzi.  0.84-m f/3.5 reflector +
    CMO.
474 Mount John Observatory, Lake Tekapo.  Observers A. C. Gilmore, P. M.
    Kilmartin.  Measurer P. M. Kilmartin.  1.0-m f/7.7 Reflector + CCD.
595 Farra d'Isonzo.  Observer E. Pettarin.  0.61-m f/4.5 reflector + CCD.
703 Catalina Sky Survey.  Observer H. Groeller.  Measurers T. Beuden, V. F.
    Carvajal, D. Fay, J. B. Fazekas, D. C. Fuls, A. R. Gibbs, A. D. Grauer, H.
    Groeller, J. K. Hogan, R. A. Kowalski, S. M. Larson, G. J. Leonard, D.
    Rankin, R. L. Seaman, F. C. Shelly, K. W. Wierzchos.  0.68-m Schmidt + 10K
    CCD.
958 Observatoire de Dax.  Observer P. Dupouy.  0.50-m f/4.5 Reflector + CMO.
B42 Vitebsk.  Observer V. Nevski.  0.3-m f/5.0 0.3-m f/5.0 reflector + CCD.
C95 SATINO Remote Observatory, Haute Provence.  Observer D. Husar.  0.30-m
    f/5.8 reflector + CMO.
H21 Astronomical Research Observatory, Westfield.  Observer R. Holmes.
    Measurers T. Linder, R. Holmes, L. Horn.  0.76-m f/3.0 astrograph + CCD.
I52 Steward Observatory, Mt. Lemmon Station.  Observer H. Groeller.  Measurers
    T. Beuden, V. F. Carvajal, D. Fay, J. B. Fazekas, D. C. Fuls, A. R. Gibbs,
    A. D. Grauer, H. Groeller, J. K. Hogan, R. A. Kowalski, S. M. Larson, G.
    J. Leonard, D. Rankin, R. L. Seaman, F. C. Shelly, K. W. Wierzchos.  1.0-m
    prime focus + CCD.
I93 St Pardon de Conques.  Observer F. Losse.  0.40-m f/3.7 reflector + CCD.
K19 PASTIS Observatory, Banon.  Observer C. Demeautis.  0.28-m f/2.2 reflector
    + CMO.
K74 Muensterschwarzach Observatory, Schwarzach.  Observer C. Gerhard.  0.30-m
    f/3.75 reflector + CMO.
L01 Visnjan Observatory, Tican.  Observer K. Korlevic.  1.0-m f/2.9 reflector
    + CCD.
M28 Lesedi Telescope-SAAO Observatory, Sutherland.  Observers N. Erasmus, S.
    Potter, C. van Gend, S. Chandra, H. Worters.  Measurers T. Ngwane, N.
    Erasmus.  1.0-m f/8 Reflector + CCD.
Y66 Two-Meter Twin Telescope, TTT2, Teide.  Observer M. Serra.  Measurer M.
    Hierro.  0.80-m f/4.38 reflector + CMO.
Z84 Calar Alto-Schmidt.  Observers M. Micheli, R. Kresken, L. Conversi.
    Measurers R. Kresken, M. Micheli, F. Ocana.  0.8-m f/3 Schmidt + CCD.
Orbital elements:
2024 EP3                                                 Earth MOID = 0.0207 AU
Epoch 2024 Mar. 31.0 TT = JDT 2460400.5                 Veres                   
M 309.85127              (2000.0)            P               Q                  
n   0.90887496     Peri.  255.68307     -0.30793116     +0.95125120             
a   1.0555204      Node   356.24636     -0.73876849     -0.25053178             
e   0.1051202      Incl.   15.32985     -0.59949940     -0.17987491             
mailing list